Wind_Speed
45 44 42 41 41 40 39 39 38 37 36 36 35 34 33 32 30 29 28 27 27 26 26 25 25 25 25 25 25 24 24 25 25 26 26 27 27 27
45 45 45 43 41 41 40 39 39 37 36 37 37 36 34 34 33 32 30 29 28 28 27 27 27 27 26 26 25 25 25 25 25 26 27 27 27 27
44 45 46 45 44 42 42 41 39 39 38 37 38 39 37 37 36 36 34 32 31 30 30 29 28 29 28 27 26 26 26 26 26 26 26 26 26 26
43 44 45 45 45 44 42 40 40 40 40 39 38 39 39 38 38 36 36 35 34 33 31 30 29 29 28 28 27 26 26 26 26 26 25 26 25 26
39 42 42 44 45 43 42 40 40 40 41 41 39 39 39 39 39 38 37 35 34 33 32 30 30 29 28 27 26 26 26 26 25 25 25 25 24 24
35 37 39 40 42 43 42 41 40 39 39 40 39 39 39 40 38 37 37 36 35 33 32 31 30 29 27 26 26 26 26 25 24 24 24 24 23 22
32 34 34 36 38 39 39 39 39 39 39 39 38 38 38 38 38 38 37 36 34 32 31 30 29 28 26 26 26 26 25 25 24 24 22 21 20 19
27 30 32 34 35 36 37 37 37 38 38 39 39 38 38 38 38 37 36 35 33 31 30 29 27 27 26 25 25 24 24 24 23 21 20 19 18 17
24 26 28 30 32 33 34 34 35 35 36 37 37 38 37 37 36 35 34 32 30 29 27 26 25 24 24 23 23 23 23 22 20 18 18 17 16 15
20 23 25 27 29 30 31 32 33 33 34 34 34 35 36 35 35 34 32 30 28 27 25 24 23 23 23 22 21 20 19 18 17 16 16 16 15 14
15 19 22 24 26 27 29 30 31 31 33 33 33 33 33 32 32 32 31 29 26 25 25 24 23 22 21 20 18 18 17 16 16 15 14 13 13 12
12 14 18 20 23 25 26 27 28 28 29 29 28 28 28 28 27 26 26 26 25 24 23 22 21 20 19 18 17 17 16 15 14 13 12 11 11 11
9 11 14 17 19 22 23 24 25 26 26 26 26 25 23 23 23 23 23 23 22 21 21 20 20 19 18 17 16 15 14 13 12 11 11 10 10 10
5 8 11 14 16 17 18 19 20 21 21 22 22 22 22 22 22 21 21 21 20 19 19 18 18 18 17 16 15 14 13 13 12 11 10 10 9 9
4 6 8 10 12 14 15 16 18 18 19 20 20 20 21 21 20 20 19 19 19 19 18 17 17 16 16 15 14 14 13 12 11 10 9 9 9 9
5 6 7 9 10 12 13 15 17 17 17 18 19 19 19 19 19 18 18 18 18 17 16 16 15 15 15 14 14 13 12 12 11 10 10 9 9 9
7 6 7 8 9 10 12 13 15 15 15 16 17 18 18 18 17 17 18 18 17 17 16 15 14 14 14 14 13 13 12 11 11 11 10 10 10 10
6 6 7 8 9 10 11 12 13 13 13 15 15 16 17 17 17 17 17 16 16 16 15 14 14 14 14 13 13 12 12 11 11 10 10 10 10 10
6 6 6 7 8 9 10 10 11 13 14 15 16 16 16 16 16 16 16 15 15 14 14 13 13 13 13 13 12 12 11 11 11 11 11 11 11 11
6 6 6 7 8 8 9 10 10 11 13 14 15 16 16 16 15 15 15 14 14 13 13 13 13 13 12 12 12 11 11 11 11 11 12 12 12 13
4 4 5 6 7 8 8 9 10 11 12 13 14 15 15 15 15 15 14 13 13 13 12 12 12 12 11 11 11 11 11 11 12 12 12 13 13 14
2 3 4 5 6 7 8 9 10 10 11 12 13 13 13 13 13 13 13 12 12 12 12 11 11 11 11 10 10 11 11 12 12 13 14 14 14 15
1 2 3 4 6 7 8 9 10 10 11 12 12 12 12 12 12 12 12 11 11 11 11 11 11 11 11 10 11 11 11 12 12 13 14 15 15 16
Wind_Direction
229 228 228 228 228 230 230 231 231 232 234 235 237 239 240 242 245 247 249 253 255 257 260 265 270 272 275 279 282 283 285 288 290 294 295 297 298 299
229 228 228 228 228 230 231 230 230 230 233 234 234 237 239 241 244 246 248 251 255 257 261 265 268 270 273 277 279 283 286 288 291 293 294 294 296 299
229 228 227 229 230 231 231 229 229 230 231 233 234 236 238 240 243 246 247 250 254 257 261 264 267 269 271 276 279 283 285 286 289 292 293 295 297 299
230 229 229 229 229 231 230 228 229 229 231 233 235 236 237 238 240 244 247 249 252 255 258 261 265 267 269 273 278 281 284 286 288 291 294 295 297 299
230 229 229 230 229 229 230 229 228 229 231 232 235 236 237 238 240 242 245 247 249 251 253 257 261 265 269 272 276 279 282 284 287 290 293 295 297 299
233 231 230 230 229 229 230 230 230 230 231 233 234 235 237 238 239 240 242 244 246 248 251 254 258 263 267 270 273 277 280 281 284 288 291 292 296 299
233 233 232 231 230 230 231 231 230 230 231 230 232 233 236 237 238 240 240 241 243 246 248 252 256 261 264 268 271 273 276 279 283 287 287 291 295 296
233 232 231 232 230 230 232 233 232 231 230 231 232 233 234 236 239 239 240 240 242 245 249 252 255 257 260 265 268 270 273 277 280 282 286 289 292 293
235 232 230 232 233 232 232 232 233 235 235 235 235 235 237 237 238 238 238 238 239 242 246 249 252 254 257 261 265 267 271 273 275 278 282 285 287 288
235 233 231 230 230 230 229 231 233 234 234 235 234 234 235 235 234 233 235 236 238 242 245 246 247 250 255 260 263 265 267 269 272 276 280 281 281 282
232 229 230 229 228 227 227 229 231 233 232 233 233 232 230 229 230 231 233 236 237 241 243 245 248 251 253 256 258 260 263 267 270 273 275 275 277 282
231 225 223 224 223 223 225 228 229 229 228 227 226 224 222 222 225 227 231 233 236 238 240 243 246 248 250 252 255 258 260 264 265 265 267 270 274 279
227 222 216 216 218 218 221 223 223 222 223 222 220 218 216 217 220 223 226 228 231 233 236 239 242 242 244 248 252 254 257 257 256 258 263 267 272 278
197 203 203 207 207 208 211 212 211 211 213 213 212 212 212 213 215 216 218 223 226 228 233 236 238 238 240 244 244 244 246 249 251 255 259 262 268 274
157 177 182 185 188 194 196 198 199 202 203 203 204 206 208 209 210 214 216 219 220 223 225 227 229 232 235 237 237 238 242 244 246 251 254 258 265 273
115 147 161 169 171 179 184 189 193 194 195 196 199 202 205 208 211 215 214 214 213 215 218 222 225 230 230 231 233 235 238 241 245 248 251 258 266 275
94 116 142 155 165 172 179 182 184 185 188 189 192 196 199 202 203 205 207 207 209 211 214 216 221 223 223 227 230 233 236 239 244 248 254 262 269 276
94 115 134 143 153 164 170 176 180 183 184 186 187 190 194 195 197 199 200 203 206 208 211 215 219 219 221 224 229 233 234 238 242 248 256 263 270 275
89 112 130 141 146 154 163 172 179 184 186 185 185 187 190 191 193 194 196 198 201 205 209 213 216 218 221 226 230 233 236 239 245 251 257 264 270 276
82 107 121 137 148 154 160 164 169 175 178 181 183 184 188 191 193 194 196 200 205 209 212 213 216 220 224 228 231 234 239 244 250 256 262 266 271 276
78 108 132 143 150 157 161 164 166 171 174 178 183 186 189 191 194 197 201 205 209 212 213 214 217 221 225 229 234 238 244 251 257 262 266 269 272 276
76 119 142 153 158 164 170 172 173 175 177 179 182 184 187 190 194 199 203 206 208 210 212 215 219 224 228 233 239 245 251 257 262 266 269 272 275 278
236 188 175 175 177 178 178 179 181 184 185 187 187 188 190 193 196 199 201 204 208 211 214 218 223 228 233 240 247 253 258 263 267 270 273 276 279 281
Height
5785 5790 5796 5801 5806 5811 5816 5820 5825 5829 5833 5837 5841 5845 5848 5852 5855 5857 5859 5861 5863 5865 5866 5867 5868 5869 5869 5869 5869 5868 5868 5866 5865 5864 5862 5861 5859 5857
5775 5781 5787 5792 5797 5802 5807 5811 5816 5821 5825 5829 5833 5837 5841 5844 5847 5850 5853 5855 5857 5858 5860 5861 5862 5862 5863 5863 5863 5862 5862 5860 5859 5858 5856 5855 5853 5851
5766 5772 5777 5782 5788 5793 5797 5802 5807 5812 5817 5821 5825 5829 5833 5837 5840 5843 5846 5848 5850 5852 5853 5855 5855 5856 5856 5856 5856 5856 5855 5854 5853 5852 5851 5849 5847 5845
5757 5762 5768 5773 5779 5784 5788 5793 5798 5803 5808 5813 5817 5821 5825 5829 5832 5835 5838 5841 5843 5845 5846 5848 5849 5849 5850 5850 5850 5850 5849 5848 5847 5846 5845 5843 5841 5839
5748 5753 5758 5763 5769 5774 5779 5784 5789 5794 5799 5804 5808 5812 5816 5820 5824 5827 5830 5833 5835 5837 5839 5841 5842 5842 5843 5843 5843 5843 5843 5842 5841 5840 5839 5837 5836 5834
5740 5745 5750 5755 5761 5766 5771 5775 5780 5785 5790 5795 5799 5803 5807 5811 5815 5819 5822 5825 5827 5830 5832 5833 5834 5835 5836 5837 5837 5837 5837 5836 5835 5834 5833 5832 5830 5829
5733 5738 5742 5747 5752 5757 5762 5767 5771 5777 5781 5786 5790 5794 5799 5803 5807 5810 5814 5817 5819 5822 5824 5826 5827 5829 5829 5830 5831 5831 5831 5830 5830 5829 5828 5827 5825 5824
5726 5730 5735 5739 5744 5749 5754 5759 5764 5768 5773 5778 5782 5786 5790 5795 5799 5802 5806 5809 5812 5815 5817 5818 5820 5822 5823 5824 5824 5825 5825 5824 5824 5824 5823 5822 5821 5820
5721 5724 5728 5732 5737 5742 5746 5751 5756 5761 5766 5770 5774 5779 5783 5787 5791 5794 5798 5801 5804 5807 5809 5811 5813 5815 5817 5817 5818 5818 5819 5819 5819 5818 5818 5817 5817 5816
5715 5718 5722 5726 5730 5735 5739 5744 5749 5753 5758 5763 5767 5771 5775 5779 5783 5787 5790 5794 5797 5800 5802 5804 5806 5809 5810 5811 5812 5813 5813 5813 5814 5814 5813 5813 5812 5812
5711 5714 5717 5720 5724 5729 5733 5738 5742 5746 5750 5755 5759 5762 5766 5771 5775 5779 5783 5787 5790 5793 5796 5798 5800 5802 5804 5805 5806 5808 5808 5809 5809 5809 5809 5809 5809 5808
5707 5709 5712 5715 5719 5723 5727 5732 5736 5740 5744 5748 5752 5756 5760 5764 5768 5773 5777 5781 5784 5787 5790 5793 5795 5797 5799 5800 5801 5803 5804 5804 5804 5805 5805 5805 5805 5805
5705 5707 5709 5712 5715 5719 5722 5726 5730 5734 5738 5742 5747 5751 5755 5759 5763 5767 5772 5775 5779 5782 5785 5788 5790 5792 5794 5796 5797 5798 5799 5800 5800 5801 5801 5802 5802 5801
5704 5705 5707 5710 5712 5715 5719 5722 5726 5730 5734 5738 5743 5747 5751 5756 5759 5763 5767 5770 5774 5778 5780 5783 5785 5787 5789 5791 5793 5794 5795 5796 5797 5797 5798 5798 5798 5798
5704 5705 5707 5709 5711 5714 5717 5720 5724 5727 5731 5735 5740 5744 5748 5752 5756 5759 5763 5766 5770 5773 5776 5778 5781 5783 5785 5787 5789 5790 5791 5792 5793 5794 5795 5795 5795 5795
5706 5707 5708 5709 5711 5714 5716 5719 5723 5726 5730 5734 5737 5741 5745 5749 5753 5756 5759 5763 5766 5769 5772 5775 5777 5780 5782 5784 5785 5787 5788 5789 5790 5791 5792 5792 5792 5791
5709 5709 5710 5711 5713 5715 5717 5719 5722 5726 5729 5732 5735 5739 5743 5746 5750 5754 5757 5760 5764 5767 5769 5772 5774 5776 5778 5780 5782 5783 5785 5786 5787 5788 5788 5788 5788 5788
5713 5712 5713 5714 5715 5716 5718 5720 5723 5726 5728 5731 5734 5738 5741 5745 5748 5751 5755 5758 5761 5764 5767 5769 5771 5773 5775 5777 5779 5780 5781 5783 5784 5784 5785 5785 5785 5785
5716 5715 5716 5716 5717 5718 5720 5721 5723 5726 5728 5731 5734 5738 5741 5744 5747 5750 5753 5756 5759 5762 5764 5766 5768 5770 5772 5774 5776 5777 5778 5779 5780 5781 5781 5781 5781 5781
5719 5719 5718 5719 5719 5720 5721 5723 5724 5726 5729 5731 5734 5737 5740 5743 5746 5749 5752 5755 5757 5759 5761 5764 5766 5768 5770 5771 5773 5774 5775 5776 5776 5777 5777 5777 5777 5777
5722 5721 5721 5721 5722 5722 5723 5724 5726 5727 5730 5732 5734 5737 5740 5742 5745 5748 5750 5753 5755 5757 5759 5761 5763 5765 5766 5768 5769 5771 5771 5772 5773 5773 5773 5773 5773 5773
5724 5723 5723 5723 5723 5724 5725 5726 5727 5729 5730 5732 5735 5737 5739 5742 5744 5746 5749 5751 5753 5755 5757 5759 5760 5762 5763 5765 5766 5767 5768 5768 5768 5768 5769 5769 5768 5768
5725 5724 5724 5724 5724 5725 5725 5726 5727 5729 5731 5732 5734 5736 5739 5741 5743 5745 5747 5749 5751 5753 5754 5756 5757 5759 5760 5761 5762 5763 5764 5764 5764 5764 5764 5764 5763 5763